User: anonymous   Login
Location: Meanaryar
(48.4161°N, 4.7315°W)
Time: 03:30:48
(UTC+00:00)
Language:

CREW DRAGON DEMO-1 DEB - Orbit

View from above orbital plane
View from above orbital plane
View from above satellite
View from above satellite

Ground track
Ground track

The orbit data is extracted from the following two-line orbital elements,

1 44064U 19011B   20335.51185307 +.00040996 +00000-0 +32305-3 0  9997
2 44064 051.6308 188.2096 0001148 296.2435 063.8444 15.71014336098953
Epoch (UTC): 30 November 2020 12:17:04
Eccentricity: 0.0001148
inclination: 51.6308°
perigee height: 355 km
apogee height: 357 km
right ascension of ascending node: 188.2096°
argument of perigee: 296.2435°
revolutions per day: 15.71014336
mean anomaly at epoch: 63.8444°
orbit number at epoch: 9895

The dashed part of the orbit path shows where the satellite is in the earth's shadow,  

DLR